Wind_Speed
39 38 41 40 38 38 37 36 34 34 32 30 30 28 26 26 26 28 29 29 27 27 23 23 22 19 18 17 16 17 17 17 16 16 16 15 14 11 10 11 12 13 18 17 18 15 16
41 37 41 40 46 41 40 38 37 37 36 33 31 30 29 30 29 31 30 28 27 24 22 20 19 18 17 16 16 14 14 15 17 17 16 14 15 15 16 16 14 18 19 18 18 16 17
46 41 45 39 45 48 44 40 40 39 39 36 33 33 31 32 32 32 31 29 27 25 20 17 16 15 15 16 14 13 14 15 16 18 18 17 16 15 15 17 16 15 14 13 13 18 19
52 48 51 48 49 48 47 47 44 41 41 39 36 35 33 33 33 32 30 30 26 25 21 20 19 19 17 18 19 18 18 16 16 19 18 15 12 10 10 12 16 14 15 8 12 11 15
45 43 49 45 48 42 40 43 45 39 41 37 36 34 33 34 33 32 32 30 28 26 26 25 23 21 21 19 14 12 11 10 10 12 12 13 13 10 12 13 10 12 11 9 9 14 18
36 40 37 36 42 49 51 48 48 45 50 41 36 35 34 36 36 33 30 31 31 31 28 28 26 22 17 18 15 11 11 13 13 14 13 17 19 16 17 11 12 9 9 10 10 9 13
41 33 33 29 37 35 40 43 44 43 33 36 34 31 30 30 31 30 27 27 28 28 27 23 18 15 17 20 18 16 16 16 16 19 20 20 14 13 12 14 16 16 13 16 17 17 19
29 33 31 24 24 26 32 34 29 28 25 26 26 27 28 27 28 27 26 26 25 26 29 23 23 24 22 23 25 23 22 23 24 20 21 21 18 16 18 20 19 15 16 19 18 12 14
28 27 29 29 27 26 26 26 28 27 26 28 27 28 27 25 25 24 25 24 23 23 27 26 25 27 24 25 25 26 25 26 26 22 22 19 12 8 11 12 15 15 17 18 16 16 19
34 31 31 31 31 30 29 28 30 30 29 29 29 30 27 25 25 24 24 21 20 18 15 18 21 21 18 21 24 26 29 30 27 23 17 17 18 22 13 15 13 16 13 14 14 11 10
36 35 34 34 31 34 34 34 31 29 32 34 33 29 27 27 24 20 19 17 13 10 5 8 11 9 9 12 10 10 19 18 20 16 17 9 10 5 10 11 10 11 11 7 10 14 17
41 39 37 37 35 34 32 34 36 33 33 30 31 28 26 25 23 22 17 13 9 7 9 6 6 6 6 9 9 6 6 7 9 9 12 13 14 10 8 8 9 7 6 10 12 13 13
41 40 38 39 37 36 35 36 32 32 33 30 29 26 24 22 22 21 18 15 12 11 7 6 9 8 6 7 8 6 4 2 3 3 7 7 12 11 11 9 10 11 8 7 7 8 8
43 42 42 40 38 40 39 35 37 33 30 32 28 24 23 21 21 19 19 20 14 10 16 6 6 4 6 6 6 7 6 6 8 7 4 7 7 8 4 6 7 12 13 9 7 7 9
48 41 39 41 37 35 33 33 30 31 36 35 34 31 24 21 23 23 25 26 24 19 9 13 16 11 8 7 5 5 8 10 8 10 9 6 8 6 7 7 8 7 11 15 20 23 17
48 48 41 40 41 39 35 31 27 29 30 32 35 37 34 26 27 27 27 28 21 25 24 18 16 14 16 14 11 11 14 8 9 12 14 9 14 14 16 16 17 16 13 12 12 9 17
55 48 44 46 43 44 38 34 33 29 30 27 28 32 30 28 28 31 34 35 27 34 25 20 14 12 9 10 10 12 11 7 6 8 9 6 11 14 13 16 20 16 19 18 22 22 13
34 54 50 43 53 40 44 37 36 34 34 35 34 28 28 25 30 35 40 29 32 29 29 27 24 20 17 12 11 12 13 10 12 15 13 8 8 19 21 18 21 20 25 25 26 18 17
38 34 54 56 39 38 40 41 40 38 40 40 33 32 21 24 32 36 35 37 33 31 24 20 20 23 17 18 11 14 15 17 23 21 14 14 15 21 26 21 17 19 21 22 27 20 20
31 31 35 50 48 38 47 44 42 51 39 40 40 34 31 31 32 32 32 34 32 35 31 24 20 22 16 15 16 13 12 11 11 14 15 12 16 21 24 21 16 15 17 18 22 22 28
29 28 31 35 33 44 42 38 40 39 40 40 41 28 36 30 38 30 27 22 29 25 18 17 23 21 14 15 16 19 18 18 17 18 22 15 21 21 26 27 25 28 29 30 32 34 32
25 26 28 32 33 35 44 53 42 42 39 39 46 40 36 32 28 35 27 34 26 19 24 18 21 13 17 25 22 16 12 15 18 16 13 15 21 19 27 24 25 29 34 36 35 37 38
27 28 30 30 32 31 38 51 50 40 40 47 52 50 37 35 33 34 38 28 22 22 23 20 19 18 19 18 18 20 21 21 22 19 18 19 20 16 30 19 17 21 38 34 36 34 34
31 31 32 33 35 33 31 32 42 44 43 49 44 44 42 34 33 40 32 30 28 23 19 15 17 19 19 21 21 23 25 26 28 28 26 28 25 23 30 23 15 31 26 29 26 28 26
30 33 34 35 35 37 37 39 37 41 43 44 41 45 44 34 34 29 25 24 25 23 23 22 22 19 18 19 18 18 18 22 28 32 33 32 29 28 25 28 29 39 31 31 28 35 26
30 30 30 32 35 33 35 36 35 45 41 43 46 54 41 40 39 31 29 27 24 21 19 25 23 18 19 19 16 18 16 17 12 9 9 25 33 32 29 23 20 40 19 17 19 31 23
29 29 29 31 32 34 34 38 36 43 45 44 32 52 40 51 41 36 32 26 24 23 24 19 18 19 19 21 23 25 30 23 30 28 19 11 18 31 33 33 32 28 21 19 15 19 14
25 25 26 28 29 29 30 35 34 35 36 30 31 29 48 40 40 43 34 32 31 28 22 15 15 19 23 27 19 23 23 25 27 32 25 27 20 21 22 26 24 24 23 27 22 18 19
21 22 24 26 27 28 27 29 28 28 34 32 30 28 29 45 33 39 31 32 29 24 23 25 24 17 15 11 24 23 22 15 25 29 22 28 31 28 20 19 22 22 20 21 18 17 16
Wind_Direction
256 257 257 254 252 253 254 251 250 253 255 255 257 262 261 265 268 276 280 281 284 285 288 291 293 291 291 288 285 281 275 275 273 276 275 276 276 271 261 258 267 265 266 273 272 272 275
251 260 255 257 258 253 251 250 251 253 253 258 259 261 261 265 269 276 280 280 282 283 284 284 287 289 288 290 286 280 271 274 275 275 271 271 274 273 272 269 265 269 269 274 278 278 272
251 245 252 254 254 251 251 251 259 256 259 256 259 260 262 265 270 274 276 277 278 280 279 280 286 285 287 290 282 280 275 272 270 272 274 275 273 269 276 281 274 268 273 279 276 278 274
235 227 244 233 234 232 240 246 248 244 253 256 257 257 259 265 267 271 272 275 275 274 276 281 280 286 290 290 289 280 275 270 267 265 268 274 275 272 267 278 277 282 286 267 258 266 266
231 234 230 227 234 241 240 237 239 242 248 252 254 255 259 261 267 270 270 271 272 272 278 276 276 279 288 281 281 278 276 263 252 252 258 270 273 270 279 275 285 281 263 256 258 257 264
252 249 250 250 243 248 251 253 244 243 248 247 250 254 260 266 264 266 267 267 268 272 271 273 273 274 267 269 274 274 265 264 256 253 261 278 274 267 266 250 267 265 262 260 255 262 279
275 270 265 257 254 249 252 251 251 243 245 253 251 254 258 262 264 263 264 266 270 270 270 265 257 249 258 264 260 262 262 260 257 258 279 274 256 251 253 250 248 262 260 270 272 278 287
257 265 262 257 262 261 262 255 248 245 246 249 253 255 256 255 258 261 261 264 267 270 273 269 268 263 260 260 260 259 257 257 258 258 260 267 261 254 256 259 262 262 266 272 281 276 284
243 246 250 250 253 253 255 263 252 243 248 256 256 252 255 253 256 260 262 265 270 273 281 273 270 269 263 257 258 254 254 254 255 254 256 251 262 260 265 262 262 262 262 270 268 274 287
253 238 238 241 242 246 244 247 247 249 241 246 255 260 259 253 253 256 261 264 267 278 292 285 271 261 261 257 252 247 248 244 249 250 246 257 258 263 255 253 258 265 268 264 267 277 276
235 240 234 236 237 237 241 240 244 247 246 241 241 247 248 249 249 247 251 257 262 268 278 254 234 248 231 219 233 242 240 242 233 244 242 248 255 248 233 249 244 263 270 254 262 271 281
242 241 236 231 234 236 234 238 241 241 246 249 247 242 237 238 241 246 241 232 218 195 237 237 221 207 211 212 222 224 222 220 237 225 234 225 234 252 237 253 255 253 268 270 268 270 263
237 240 238 235 229 230 232 235 233 236 242 250 244 244 236 231 231 232 227 203 187 216 238 210 215 210 208 202 209 207 203 227 199 181 235 250 252 255 250 239 258 230 257 271 249 210 257
237 238 241 240 234 232 233 234 229 229 232 242 251 246 238 230 226 217 207 191 209 239 223 164 174 164 180 191 207 223 233 224 229 222 243 253 230 225 228 222 246 228 231 248 265 263 275
234 235 234 227 226 228 229 234 232 220 228 232 235 235 235 220 221 218 207 199 224 230 213 226 240 250 246 250 205 216 237 241 236 231 234 238 237 233 232 255 210 220 230 257 269 270 269
237 234 231 224 224 228 224 213 224 221 219 218 226 234 236 223 211 207 201 217 236 237 249 233 236 246 245 241 231 235 236 227 210 222 224 242 267 268 257 253 243 238 261 258 243 265 257
233 231 228 229 224 224 217 221 226 223 223 222 227 227 225 219 205 202 213 228 230 235 230 228 229 231 232 227 226 230 233 222 189 194 219 241 260 257 245 245 251 247 247 252 262 257 266
226 226 229 232 227 221 227 225 228 223 222 222 226 224 226 216 205 208 218 215 227 232 236 237 241 236 235 243 245 238 239 234 235 236 241 259 261 261 259 263 251 258 258 259 253 254 249
232 232 224 233 226 216 226 226 228 224 216 207 218 219 217 213 214 217 224 225 233 235 234 233 233 239 239 237 252 245 243 244 240 247 260 263 256 268 264 249 252 252 252 250 252 254 264
221 215 225 227 236 220 219 217 224 219 212 208 219 211 215 223 228 225 225 230 232 238 236 235 233 239 242 244 237 245 243 242 237 229 223 252 245 245 262 267 290 268 272 266 256 257 262
221 226 223 224 223 225 220 227 228 213 218 217 213 206 220 215 226 227 218 229 231 228 231 234 239 236 232 236 238 242 246 258 261 255 263 268 262 261 264 266 268 270 271 267 263 261 256
227 217 219 227 227 231 228 225 222 205 219 225 224 216 219 226 231 225 221 234 231 231 230 235 235 231 232 242 241 245 252 251 260 265 257 255 263 268 268 267 269 270 267 262 261 261 260
227 225 223 225 226 231 234 224 229 226 203 209 222 221 227 224 224 223 234 233 230 227 236 238 235 244 239 244 248 248 247 249 251 250 249 254 266 271 273 276 270 269 261 267 265 261 255
226 226 225 225 226 230 233 238 232 232 232 224 222 219 211 218 223 235 234 230 233 232 228 240 231 236 246 247 258 263 260 258 257 254 250 254 251 255 263 272 251 269 265 264 260 266 263
229 226 225 225 227 230 232 237 227 226 227 226 224 222 221 219 226 223 220 224 227 232 240 242 241 244 256 249 266 274 268 267 259 260 248 240 241 244 250 258 263 271 267 275 278 279 266
232 225 222 223 223 225 235 235 225 214 217 217 231 221 228 226 226 222 219 227 221 224 240 252 259 260 243 248 239 243 241 249 255 259 250 232 234 234 241 246 260 267 258 275 271 265 273
220 220 220 219 218 216 217 217 213 214 215 228 227 217 226 222 222 224 221 220 224 228 241 244 256 255 241 244 238 239 246 244 246 249 241 252 228 231 239 242 257 259 257 264 239 272 287
214 216 216 215 212 211 209 215 214 198 208 219 228 226 217 225 221 223 229 236 237 239 235 242 256 255 249 244 245 236 244 239 247 248 248 245 241 243 241 241 247 257 255 239 255 252 278
215 219 217 214 212 208 205 206 211 197 204 213 214 217 222 215 226 228 228 229 232 243 243 245 250 238 222 241 248 241 229 239 239 250 248 246 242 246 244 256 262 263 260 266 251 248 264
Height
3111 3114 3116 3118 3120 3122 3124 3125 3127 3128 3130 3132 3134 3135 3135 3137 3138 3138 3137 3138 3137 3137 3137 3138 3137 3136 3136 3136 3136 3135 3135 3134 3134 3134 3135 3136 3137 3138 3139 3138 3139 3139 3139 3139 3139 3138 3137
3102 3104 3107 3109 3111 3113 3115 3117 3119 3120 3123 3125 3127 3129 3131 3132 3131 3132 3132 3132 3132 3133 3132 3132 3132 3132 3132 3132 3132 3132 3131 3130 3131 3130 3130 3131 3133 3134 3135 3135 3135 3133 3135 3135 3135 3135 3133
3093 3094 3098 3100 3102 3104 3106 3109 3113 3112 3117 3119 3121 3123 3124 3126 3125 3125 3126 3127 3127 3127 3128 3128 3128 3127 3127 3128 3128 3127 3126 3126 3127 3127 3127 3128 3129 3131 3131 3130 3129 3129 3132 3131 3130 3131 3129
3083 3083 3088 3091 3092 3094 3096 3099 3104 3105 3109 3112 3114 3116 3117 3118 3119 3120 3120 3121 3121 3123 3124 3124 3125 3124 3123 3123 3123 3123 3123 3122 3122 3122 3123 3123 3124 3127 3127 3126 3126 3127 3128 3130 3126 3126 3125
3072 3074 3078 3079 3083 3086 3087 3091 3094 3096 3101 3105 3107 3109 3111 3111 3113 3114 3114 3115 3116 3116 3120 3121 3122 3120 3119 3118 3118 3118 3119 3118 3118 3119 3120 3120 3122 3124 3123 3121 3125 3123 3126 3127 3126 3122 3122
3061 3065 3068 3072 3073 3076 3080 3084 3085 3087 3091 3096 3100 3101 3104 3105 3106 3107 3108 3108 3110 3111 3113 3115 3116 3117 3114 3115 3114 3114 3115 3116 3115 3117 3117 3116 3118 3121 3119 3118 3119 3120 3122 3121 3123 3122 3117
3053 3056 3060 3063 3065 3068 3071 3075 3077 3079 3082 3088 3094 3095 3097 3098 3100 3102 3103 3103 3108 3107 3107 3109 3110 3108 3110 3110 3111 3112 3111 3113 3114 3114 3114 3113 3115 3117 3119 3115 3111 3114 3116 3117 3118 3116 3111
3044 3048 3052 3055 3057 3060 3063 3066 3069 3072 3077 3081 3086 3088 3091 3091 3094 3096 3096 3098 3099 3100 3099 3102 3103 3102 3101 3105 3106 3106 3107 3109 3109 3109 3107 3110 3110 3113 3110 3109 3108 3109 3111 3111 3111 3108 3108
3037 3040 3044 3048 3051 3055 3057 3059 3062 3066 3071 3075 3080 3082 3085 3085 3089 3090 3092 3094 3095 3094 3095 3093 3095 3096 3094 3098 3099 3101 3102 3101 3102 3104 3103 3106 3110 3104 3105 3105 3106 3107 3107 3107 3107 3106 3104
3031 3032 3037 3041 3043 3047 3052 3054 3058 3060 3063 3068 3074 3077 3079 3081 3085 3085 3087 3089 3090 3093 3093 3085 3087 3085 3086 3089 3091 3094 3093 3095 3094 3098 3100 3099 3103 3099 3100 3104 3105 3105 3104 3101 3103 3103 3100
3021 3024 3030 3033 3037 3039 3045 3047 3051 3054 3058 3060 3062 3069 3072 3077 3077 3080 3084 3086 3087 3091 3092 3084 3080 3081 3081 3085 3087 3086 3087 3089 3091 3090 3096 3098 3096 3095 3098 3101 3101 3102 3099 3099 3099 3098 3097
3015 3016 3019 3025 3029 3033 3037 3040 3043 3047 3050 3055 3058 3060 3064 3070 3071 3077 3078 3082 3084 3092 3082 3078 3077 3078 3080 3079 3084 3082 3085 3087 3086 3088 3089 3095 3092 3095 3096 3096 3098 3097 3098 3096 3095 3094 3088
3004 3007 3012 3016 3021 3025 3030 3033 3035 3039 3044 3048 3052 3055 3060 3062 3065 3070 3074 3078 3085 3079 3075 3074 3075 3076 3078 3078 3081 3081 3083 3084 3089 3091 3090 3091 3091 3092 3091 3093 3093 3096 3097 3092 3086 3083 3079
2993 2998 3002 3007 3012 3016 3021 3026 3027 3032 3036 3040 3044 3048 3052 3056 3061 3064 3069 3075 3073 3068 3071 3071 3072 3074 3075 3076 3078 3079 3083 3084 3084 3087 3089 3089 3090 3091 3089 3089 3091 3091 3094 3090 3082 3074 3074
2983 2988 2992 2997 3002 3008 3013 3016 3021 3025 3027 3033 3038 3041 3047 3050 3057 3060 3065 3065 3063 3067 3065 3068 3073 3073 3075 3075 3076 3077 3080 3083 3084 3083 3089 3087 3088 3087 3087 3086 3087 3088 3090 3089 3084 3080 3077
2972 2978 2983 2989 2994 2999 3003 3008 3014 3018 3022 3024 3030 3034 3039 3045 3049 3054 3058 3056 3058 3058 3061 3064 3069 3070 3071 3071 3072 3075 3076 3078 3079 3079 3082 3085 3083 3083 3083 3082 3082 3083 3085 3084 3082 3076 3066
2959 2966 2973 2978 2983 2990 2995 3001 3007 3012 3015 3020 3022 3025 3032 3037 3042 3046 3047 3049 3050 3053 3057 3062 3063 3066 3067 3067 3068 3071 3073 3076 3077 3077 3079 3079 3078 3078 3077 3077 3077 3077 3077 3077 3076 3073 3066
2946 2953 2961 2968 2973 2979 2986 2993 2999 3005 3009 3013 3015 3020 3025 3030 3037 3036 3038 3043 3044 3047 3051 3054 3058 3060 3063 3064 3065 3067 3070 3072 3073 3074 3074 3074 3074 3072 3072 3073 3070 3070 3069 3070 3069 3064 3064
2937 2943 2950 2956 2964 2970 2977 2985 2991 2996 2999 3002 3007 3013 3017 3023 3025 3028 3033 3036 3039 3041 3045 3047 3051 3054 3057 3060 3063 3062 3064 3067 3068 3069 3069 3070 3069 3067 3065 3066 3065 3062 3062 3062 3062 3060 3057
2928 2933 2939 2947 2953 2960 2968 2974 2982 2987 2989 2994 2999 3005 3010 3012 3018 3022 3026 3029 3033 3034 3038 3042 3044 3046 3051 3055 3058 3058 3060 3061 3062 3063 3063 3063 3063 3063 3059 3057 3059 3057 3057 3057 3057 3054 3048
2920 2924 2930 2936 2943 2951 2957 2965 2974 2977 2981 2987 2989 2991 2997 3001 3006 3014 3021 3022 3027 3030 3031 3036 3039 3041 3047 3051 3053 3053 3056 3058 3059 3060 3059 3059 3056 3057 3055 3055 3055 3052 3051 3050 3049 3045 3045
2912 2917 2923 2929 2935 2942 2949 2955 2961 2969 2972 2976 2981 2985 2990 2998 3003 3009 3014 3013 3020 3025 3030 3032 3035 3037 3041 3044 3047 3050 3051 3053 3052 3054 3053 3052 3050 3050 3047 3049 3048 3045 3041 3038 3038 3035 3035
2906 2912 2917 2922 2928 2933 2940 2948 2954 2958 2961 2960 2969 2978 2987 2992 2995 3002 3001 3009 3016 3021 3025 3026 3030 3033 3035 3040 3041 3042 3043 3044 3044 3046 3048 3048 3047 3046 3038 3043 3041 3038 3024 3028 3026 3026 3026
2899 2904 2909 2914 2919 2924 2931 2937 2944 2950 2955 2960 2965 2973 2979 2984 2989 2989 2997 3005 3010 3013 3018 3021 3023 3027 3031 3031 3033 3033 3033 3034 3033 3035 3039 3039 3041 3042 3035 3036 3029 3018 3019 3017 3017 3016 3016
2890 2895 2900 2905 2911 2917 2924 2930 2936 2942 2950 2953 2961 2966 2972 2978 2982 2990 2993 2999 3004 3008 3011 3015 3018 3022 3024 3026 3028 3028 3027 3026 3023 3023 3025 3028 3032 3032 3030 3025 3019 3012 3014 3011 3011 3006 3007
2882 2886 2891 2896 2902 2908 2914 2920 2927 2936 2940 2938 2948 2956 2965 2971 2975 2985 2989 2993 2997 3001 3006 3007 3011 3016 3018 3019 3022 3020 3019 3019 3018 3017 3014 3016 3021 3025 3021 3018 3012 3001 3005 3004 3004 2997 2998
2874 2879 2884 2889 2894 2900 2906 2913 2919 2926 2934 2936 2941 2951 2957 2964 2969 2976 2980 2986 2991 2995 2998 3002 3005 3009 3011 3011 3012 3012 3010 3013 3011 3011 3012 3012 3012 3010 3010 3009 3000 3001 2998 2999 3000 2998 2993
2869 2873 2878 2883 2888 2893 2899 2906 2913 2920 2926 2932 2937 2945 2952 2956 2961 2969 2974 2978 2983 2987 2992 2997 3001 3001 3004 3005 3005 3003 3001 3002 3003 3001 3003 3004 3005 3002 3001 2999 2993 2991 2992 2992 2990 2987 2990
2863 2868 2872 2878 2882 2888 2894 2900 2906 2914 2921 2927 2934 2941 2946 2951 2957 2962 2967 2972 2977 2981 2987 2988 2992 2995 2996 2997 2996 2996 2994 2994 2994 2993 2996 2996 2994 2995 2994 2989 2986 2985 2984 2984 2983 2984 2985